This is the latest recevied weather packets stored in our database for station/object KC7UNY-13. If no packets are shown the sender has not sent any weather packets the latest 10 day(s).
| Time | Temp. | Humidity | Pressure | Rain* | Wind** | Luminosity | Snow |
|---|---|---|---|---|---|---|---|
| 1777688355 | 28.89° C | 24% | 1008.7 hPa | 0 mm | - | 1 W/m² | - |
| 1777688052 | 28.89° C | 24% | 1008.7 hPa | 0 mm | - | 2 W/m² | - |
| 1777687750 | 29.44° C | 24% | 1008.8 hPa | 0 mm | - | 3 W/m² | - |
| 1777687448 | 29.44° C | 24% | 1008.9 hPa | 0 mm | - | 5 W/m² | - |
| 1777687144 | 29.44° C | 24% | 1008.7 hPa | 0 mm | - | 8 W/m² | - |
| 1777686841 | 29.44° C | 24% | 1008.6 hPa | 0 mm | - | 11 W/m² | - |
| 1777686538 | 30° C | 24% | 1008.5 hPa | 0 mm | - | 13 W/m² | - |
| 1777686235 | 30° C | 24% | 1008.6 hPa | 0 mm | - | 15 W/m² | - |
| 1777685931 | 30° C | 24% | 1008.4 hPa | 0 mm | - | 19 W/m² | - |
| 1777685627 | 30° C | 24% | 1008.6 hPa | 0 mm | - | 21 W/m² | - |
| 1777685324 | 30.56° C | 24% | 1008.5 hPa | 0 mm | - | 23 W/m² | - |
| 1777685022 | 30.56° C | 23% | 1008.6 hPa | 0 mm | - | 27 W/m² | - |
| 1777684719 | 30.56° C | 23% | 1008.7 hPa | 0 mm | - | 42 W/m² | - |
| 1777684414 | 31.11° C | 23% | 1008.6 hPa | 0 mm | - | 47 W/m² | - |
| 1777684112 | 31.11° C | 23% | 1008.5 hPa | 0 mm | - | 63 W/m² | - |
| 1777683808 | 31.67° C | 23% | 1008.5 hPa | 0 mm | - | 71 W/m² | - |
| 1777683505 | 32.22° C | 22% | 1008.6 hPa | 0 mm | - | 80 W/m² | - |
| 1777683203 | 31.67° C | 23% | 1008.5 hPa | 0 mm | - | 90 W/m² | - |
| 1777682895 | 32.78° C | 23% | 1008.4 hPa | 0 mm | - | 100 W/m² | - |
| 1777682591 | 32.22° C | 23% | 1008.3 hPa | 0 mm | - | 111 W/m² | - |
| 1777682289 | 32.78° C | 23% | 1008.4 hPa | 0 mm | - | 121 W/m² | - |
| 1777681986 | 32.22° C | 23% | 1008.2 hPa | 0 mm | - | 132 W/m² | - |
| 1777681682 | 31.67° C | 23% | 1008.5 hPa | 0 mm | - | 144 W/m² | - |
| 1777681380 | 32.22° C | 23% | 1008.4 hPa | 0 mm | - | 156 W/m² | - |
| 1777681076 | 32.78° C | 23% | 1008.4 hPa | 0 mm | - | 168 W/m² | - |
* Rain latest hour (hover to see other rain measurements)
** Current wind speed in m/s (hover to see current wind gust speed)